sat.trackr.live / text

‹ back to catalog

STARLINK-31797

NORAD 59634 · 2024-082D

PAYLOAD ACTIVE UNKNOWN

§ Identity

Operator
Country
US
Launch date
2024-05-03
Launch site
AFETR
Launch vehicle
Mass (kg)
RCS (m²)

Purposes: comms

External: N2YO · Heavens-Above · Gunter

§ Orbital elements

Epoch: 2026-05-25T03:09:18.723744Z

Period
94.27 min
Inclination
43.0014°
Eccentricity
0.0001114
Mean motion
15.27575685 rev/d
Perigee alt
482.3 km
Apogee alt
483.8 km
Semi-major
6,861.2 km
B*
4.8235e-5
RAAN
68.0258°
Arg perigee
261.5533°
Mean anomaly
98.5192°
Rev number
11,654

§ Raw data

STARLINK-317971 59634U 24082D   26145.13146671  .00001065  00000+0  48235-4 0  99972 59634  43.0014  68.0258 0001114 261.5533  98.5192 15.27575685116544

JSON: /api/v1/satellites/59634 · /tle

For live sub-satellite position, see the globe view (requires WebGL).

§ Visibility from observer

Set your observer location to see the next 7 days of passes ≥ 10°. The values pass through the URL so the page stays shareable.

No JS? Fill the form by hand. The geolocation button needs JavaScript.